User: anonymous   Login
Location: Caltech
(34.1382°N, 118.1253°W)
Time: 21:32:39
(UTC-07:00)
Language:

Cosmos 2251 Rocket - Orbit

View from above orbital plane
View from above orbital plane
View from above satellite
View from above satellite

Ground track
Ground track

The orbit data is extracted from the following two-line orbital elements,

1 22676U 93036B   16182.84614878  .00000010  00000-0  13127-4 0  9997
2 22676  74.0433 104.4135 0019670 219.8235 140.1474 14.33880724204981
Epoch (UTC): 30 June 2016 20:18:27
Eccentricity: 0.0019670
inclination: 74.0433°
perigee height: 765 km
apogee height: 793 km
right ascension of ascending node: 104.4135°
argument of perigee: 219.8235°
revolutions per day: 14.33880724
mean anomaly at epoch: 140.1474°
orbit number at epoch: 20498

The dashed part of the orbit path shows where the satellite is in the earth's shadow,  

DLR